Regional Weather Roundup
Issued by NWS

Home | Current Version | Previous Version | Text Only | Print | Product List | Glossary On
Versions: 1 2 3 4 5 6 7 8 9 10 11 12 13 14 15 16 17 18 19 20 21 22 23 24 25 26 27 28 29 30 31 32 33 34 35 36 37 38 39 40 41 42 43 44 45 46 47 48 49 50
000
ASCA42 TJSJ 090510
RWRPR
PUERTO RICO/U.S. VIRGIN ISLANDS HOURLY WEATHER ROUNDUP
NATIONAL WEATHER SERVICE SAN JUAN PR
100 AM AST TUE FEB 09 2016

PRZ001-004-090600-
PUERTO RICO

CITY           SKY/WX    TMP DP  RH WIND       PRES   REMARKS
SAN JUAN LMM   CLEAR     77  72  83 CALM      30.06S
PONCE          PTCLDY    73  68  83 NE6       30.03S
CEIBA          CLEAR     73  72  94 CALM      30.08S
$$

PRZ006-007-090600-
U.S. VIRGIN ISLANDS

CITY           SKY/WX    TMP DP  RH WIND       PRES   REMARKS
CHARLOTTE AMA  CLEAR     77  72  83 E6        30.04F
CHRISTIANSTED  PTCLDY    75  72  88 N3        30.05S
$$

HOURLY WEATHER ROUNDUP FOR THE NEWS MEDIA

CITY           SKY/WX    TMP DP  RH WIND       PRES   REMARKS
ORLANDO        CLOUDY    59  45  59 W18G30    29.89R
NEW YORK       FLURRIES  28  24  85 NE9       29.78F WCI  19
NEWARK         FRZ DRZL  30  25  81 NE6       29.76F WCI  24
CHICAGO        FLURRIES  22  16  78 NW15G21   29.73S WCI   9
HARTFORD       CLOUDY    21  17  84 N8G20     29.74F WCI  11
BOSTON         LGT SNOW  21  16  81 N10       29.79F WCI  10
DALLAS         CLEAR     44   9  23 NW8       30.29R
PHILADELPHIA   FLURRIES  32  28  85 E7        29.73  WCI  26
LOS ANGELES    CLEAR     73  28  18 CALM      30.12R
WASHINGTON DC  LGT RAIN  38  33  82 SE8       29.64F WCI  32


USA.gov is the U.S. government's official web portal to all federal, state and local government web resources and services.